N357AZ KABE-KUKT

Flight info

Callsign N357AZ
Flight time 0h 10m
Altitude 5600
Route DCT
Aircraft C172/L-SC/C

Departure

Time 2026-05-04 23:39
Airport Lehigh Valley International Airport (KABE)

Arrival

Time 2026-05-04 23:50
Airport Quakertown Airport (KUKT)
Time Latitude Longitude Altitude Speed Heading
2026-05-04 23:27 40.64934 -75.44345 392 ft 0 kts 320°
2026-05-04 23:33 40.64938 -75.44350 392 ft 5 kts 319°
2026-05-04 23:33 40.65018 -75.44315 389 ft 23 kts 56°
2026-05-04 23:33 40.65115 -75.44151 388 ft 22 kts 52°
2026-05-04 23:34 40.65208 -75.43994 387 ft 21 kts 54°
2026-05-04 23:34 40.65301 -75.43848 389 ft 21 kts 49°
2026-05-04 23:34 40.65386 -75.43703 390 ft 20 kts 47°
2026-05-04 23:34 40.65472 -75.43566 391 ft 19 kts 52°
2026-05-04 23:35 40.65557 -75.43415 388 ft 22 kts 53°
2026-05-04 23:35 40.65654 -75.43259 384 ft 23 kts 49°
2026-05-04 23:35 40.65757 -75.43098 383 ft 23 kts 51°
2026-05-04 23:35 40.65864 -75.42960 381 ft 18 kts
2026-05-04 23:36 40.65885 -75.42968 381 ft 0 kts 321°
2026-05-04 23:36 40.65916 -75.43002 382 ft 15 kts 310°
2026-05-04 23:36 40.65890 -75.43117 383 ft 3 kts 230°
2026-05-04 23:37 40.65860 -75.43160 383 ft 24 kts 224°
2026-05-04 23:37 40.65650 -75.43451 388 ft 50 kts 217°
2026-05-04 23:37 40.65492 -75.43546 390 ft 16 kts 112°
2026-05-04 23:37 40.65559 -75.43430 388 ft 17 kts 33°
2026-05-04 23:38 40.65641 -75.43483 388 ft 16 kts 274°
2026-05-04 23:38 40.65628 -75.43533 388 ft 0 kts 241°
2026-05-04 23:38 40.65608 -75.43567 388 ft 21 kts 228°
2026-05-04 23:38 40.65418 -75.43877 390 ft 63 kts 223°
2026-05-04 23:39 40.65119 -75.44398 480 ft 77 kts 230°
2026-05-04 23:39 40.64793 -75.44965 646 ft 76 kts 224°
2026-05-04 23:39 40.64477 -75.45458 860 ft 66 kts 224°
2026-05-04 23:39 40.64138 -75.45880 1059 ft 59 kts 211°
2026-05-04 23:40 40.63735 -75.46013 1194 ft 62 kts 192°
2026-05-04 23:40 40.63311 -75.45976 1323 ft 66 kts 180°
2026-05-04 23:40 40.62819 -75.45880 1396 ft 77 kts 180°
2026-05-04 23:40 40.62360 -75.45665 1665 ft 69 kts 157°
2026-05-04 23:41 40.61994 -75.45175 1813 ft 79 kts 145°
2026-05-04 23:41 40.61636 -75.44596 1949 ft 84 kts 141°
2026-05-04 23:41 40.61202 -75.44095 2056 ft 78 kts 165°
2026-05-04 23:41 40.60727 -75.43874 2159 ft 72 kts 174°
2026-05-04 23:42 40.60236 -75.43686 2256 ft 75 kts 177°
2026-05-04 23:42 40.59736 -75.43532 2281 ft 77 kts 178°
2026-05-04 23:42 40.59209 -75.43363 2322 ft 79 kts 176°
2026-05-04 23:42 40.58635 -75.43251 2330 ft 87 kts 179°
2026-05-04 23:43 40.58025 -75.43176 2366 ft 87 kts 180°
2026-05-04 23:43 40.57420 -75.43035 2344 ft 89 kts 172°
2026-05-04 23:43 40.56812 -75.42808 2337 ft 94 kts 173°
2026-05-04 23:43 40.56153 -75.42634 2353 ft 97 kts 178°
2026-05-04 23:44 40.55516 -75.42469 2476 ft 92 kts 178°
2026-05-04 23:44 40.54868 -75.42283 2437 ft 97 kts 176°
2026-05-04 23:44 40.54219 -75.42115 2471 ft 93 kts 182°
2026-05-04 23:44 40.53577 -75.42197 2433 ft 93 kts 198°
2026-05-04 23:45 40.52973 -75.42414 2503 ft 90 kts 200°
2026-05-04 23:45 40.52370 -75.42645 2568 ft 91 kts 201°
2026-05-04 23:45 40.51786 -75.42944 2652 ft 91 kts 204°
2026-05-04 23:45 40.51164 -75.43212 2627 ft 96 kts 197°
2026-05-04 23:46 40.50504 -75.43417 2664 ft 93 kts 193°
2026-05-04 23:46 40.49866 -75.43548 2632 ft 92 kts 192°
2026-05-04 23:46 40.49229 -75.43716 2497 ft 95 kts 204°
2026-05-04 23:46 40.48663 -75.44085 2499 ft 87 kts 208°
2026-05-04 23:47 40.48089 -75.44417 2355 ft 93 kts 204°
2026-05-04 23:47 40.47496 -75.44691 2288 ft 91 kts 197°
2026-05-04 23:47 40.46823 -75.44851 1994 ft 104 kts 187°
2026-05-04 23:47 40.46115 -75.44833 1807 ft 98 kts 179°
2026-05-04 23:48 40.45446 -75.44746 1603 ft 93 kts 178°
2026-05-04 23:48 40.44860 -75.44360 1377 ft 102 kts 140°
2026-05-04 23:48 40.44484 -75.43552 1189 ft 107 kts 121°
2026-05-04 23:48 40.44234 -75.42661 1075 ft 100 kts 111°
2026-05-04 23:49 40.44097 -75.41800 1041 ft 91 kts 108°
2026-05-04 23:49 40.43947 -75.41016 984 ft 89 kts 118°
2026-05-04 23:49 40.43801 -75.40259 849 ft 81 kts 103°
2026-05-04 23:49 40.43689 -75.39582 685 ft 73 kts 104°
2026-05-04 23:50 40.43616 -75.38954 559 ft 65 kts 107°
2026-05-04 23:50 40.43550 -75.38422 511 ft 42 kts 97°
2026-05-04 23:50 40.43512 -75.38186 508 ft 22 kts 101°
2026-05-04 23:50 40.43509 -75.38043 505 ft 7 kts 69°
2026-05-04 23:51 40.43540 -75.38011 504 ft 3 kts 38°
2026-05-04 23:51 40.43548 -75.38013 504 ft 0 kts 306°
2026-05-05 00:21 40.64934 -75.44345 392 ft 0 kts 320°